Terminal Aerodrome Forecast
Issued by NWS New Orleans/Baton Rouge, LA

Home | Current Version | Previous Version | Text Only | Print | Product List | Glossary On
Versions: 1 2 3 4 5 6 7 8 9 10 11 12 13
000
FTUS44 KLIX 311121
TAFNEW
TAF
KNEW 311121Z 3112/0112 28011KT P6SM SKC
     FM312200 17007KT P6SM FEW050 SCT250=

USA.gov is the U.S. government's official web portal to all federal, state and local government web resources and services.